[Iaude] MPEC C18: 2024 BD5 [a=1.98,e=0.46,i=5.2,H=23.7]
    mpec at marsden.cfa.harvard.edu 
    mpec at marsden.cfa.harvard.edu
       
    Thu Feb  1 17:07:59 EST 2024
    
    
  
M.P.E.C. 2024-C18                              Issued 2024 February 1, 22:06 UT
     The Minor Planet Electronic Circulars contain information on unusual
         minor planets, routine data on comets and natural satellites,
         and occasional editorial announcements.  They are published
    on behalf of Division F of the International Astronomical Union by the
          Minor Planet Center, Smithsonian Astrophysical Observatory,
                          Cambridge, MA 02138, U.S.A.
			  
             Prepared using the Tamkin Foundation Computer Network
                              MPC at CFA.HARVARD.EDU
            URL https://www.minorplanetcenter.net/    ISSN 1523-6714
                                    2024 BD5                                    
Observations:
     K24B05D* C2024 01 31.59961911 33 10.021+44 27 12.97         20.83wXEC018F52
     K24B05D  C2024 01 31.61257111 33 11.643+44 26 18.89         20.94wXEC018F52
     K24B05D  C2024 01 31.62547611 33 13.271+44 25 25.29         20.91wXEC018F52
     K24B05D  C2024 01 31.63839111 33 14.934+44 24 30.60         21.05wXEC018F52
     K24B05D KC2024 02 01.29739411 35 03.72 +43 39 31.2          21.2 GVEC018H21
     K24B05D KC2024 02 01.30311911 35 04.41 +43 39 08.5          20.8 GVEC018H21
     K24B05D KC2024 02 01.30884611 35 05.10 +43 38 45.8          21.1 GVEC018H21
     K24B05D  C2024 02 01.63216111 35 49.190+43 17 06.53         20.59GVEC018F52
     K24B05D  C2024 02 01.63297911 35 49.286+43 17 02.88         20.75GVEC018F52
     K24B05D KB2024 02 01.89005 11 36 34.00 +42 58 48.9          20.5 RZEC018106
     K24B05D KB2024 02 01.89612 11 36 34.66 +42 58 25.0          20.5 RZEC018106
     K24B05D KB2024 02 01.90181 11 36 35.48 +42 58 01.9          19.6 RZEC018106
     K24B05D KB2024 02 01.90713 11 36 36.32 +42 57 40.7          20.6 RZEC018106
Observer details:
106 Crni Vrh.  Observer H. Mikuz.  0.60-m f/3.3 reflector + CMO.
F52 Pan-STARRS 2, Haleakala.  Observers J. Herman, T. Lowe, P. Minguez, A.
    Schultz, I. Smith.  Measurers K. Chambers, T. de Boer, J. Fairlamb, H.
    Gao, M. Huber, C.-C. Lin, E. Magnier, Y. Ramanjooloo, R. Wainscoat, R.
    Weryk.  1.8-m Ritchey-Chretien + CCD.
H21 Astronomical Research Observatory, Westfield.  Observer R. Holmes.
    Measurers T. Linder, R. Holmes, L. Horn.  0.81-m f/4.0 astrograph + CCD.
Orbital elements:
2024 BD5                                                 Earth MOID = 0.1186 AU
Epoch 2023 Sept. 13.0 TT = JDT 2460200.5                MPC                     
M 313.70090              (2000.0)            P               Q                  
n   0.35363521     Peri.  118.44223     -0.53675671     -0.84371292             
a   1.9804584      Node     4.03821     +0.73894970     -0.47373254             
e   0.4572219      Incl.    5.20042     +0.40724143     -0.25244006             
P   2.79           H   23.76          G   0.15           U   8                  
Residuals in seconds of arc
240131 F52  0.2+  0.3+    240201 H21  0.0   0.1-    240201 106  0.8-  0.5+
240131 F52  0.1+  0.0     240201 H21  0.2-  0.1+    240201 106  0.2-  0.5-
240131 F52  0.0   0.2+    240201 F52  0.0   0.1+    240201 106  1.4+  0.9-
240131 F52  0.1+  0.3-    240201 F52  0.0   0.1-
240201 H21  0.2+  0.2-    240201 106  0.8+  0.8+
Ephemeris:
2024 BD5                 a,e,i = 1.98, 0.46, 5                   q = 1.0749
Date    TT    R. A. (2000) Decl.     Delta      r    Elong.  Phase     V
2024 01 02    08 07 35.8 +63 01 44   0.1485  1.0978   137.7    37.0    21.3
...
2024 01 17    10 22 03.5 +58 44 06   0.1284  1.0763   133.6    41.4    21.1
...
2024 01 25    11 09 32.6 +51 36 43   0.1247  1.0755   134.5    40.7    21.0
...
2024 01 31    11 31 31.6 +45 07 18   0.1251  1.0797   136.8    38.7    21.0
2024 02 01    11 34 15.5 +43 59 43   0.1255  1.0808   137.3    38.2    21.0
2024 02 02    11 36 45.5 +42 51 47   0.1259  1.0820   137.8    37.7    20.9
...
2024 02 08    11 47 30.9 +36 03 53   0.1303  1.0917   141.8    34.0    20.9
...
2024 02 16    11 53 22.1 +27 27 32   0.1411  1.1106   148.6    27.6    21.0
...
2024 03 02    11 50 42.6 +14 24 06   0.1773  1.1624   163.9    13.7    21.1
A. U. Tomatic                (C) Copyright 2024 MPC           M.P.E.C. 2024-C18
    
    
More information about the Iaude
mailing list